Weather in Kurshava

Russia / Stavropol Krai     44°25′52″N   42°34′14″E
temp.,
°C
wind,
m/s
gust,
m/s
humid.,
%
clouds,
%
prec.,
mm/h
press.,
hPa
HPBL,
m
2 august, mon
mon200:00+22sse11520 0.0 101111
03:00+20ssw21600 0.0 101111
06:00+21sw11673 0.0 101211
09:00+28n114723 0.1 1012525
12:00+31ene223855 0.0 10111739
15:00+33ene32335 0.0 10092472
18:00+31e34414 0.0 1009134
21:00+24s22505 0.0 101012
3 august, tue
tue300:00+22sw22630 0.0 101012
03:00+21sw22702 0.0 101112
06:00+21wsw22700 0.1 101229
09:00+28w21490 0.1 1012508
12:00+32n22360 0.0 10111929
15:00+33nne22300 0.0 10102606
18:00+33e11370 0.0 101071
21:00+26sw11430 0.0 101111
4 august, wed
wed400:00+23wsw33620 0.0 101237
03:00+22wsw33670 0.0 101253
06:00+21wsw23680 0.0 101362
09:00+29w45430 0.0 1013515
12:00+33nw43330 0.0 10121563
15:00+34nw32302 0.0 10112881
18:00+32nw233713 0.0 101180
21:00+26nnw234962 0.2 101346
5 august, thu
thu500:00+23w22573 0.1 101417
03:00+19wnw3383100 1.2 101447
06:00+21w2276100 0.1 101538
09:00+26nnw225577 0.2 1014458
12:00+31ne343814 0.0 10131530
15:00+33ene44320 0.0 10122253
18:00+31e35380 0.0 1011225
21:00+26ene22430 0.0 101111
6 august, fri
fri600:00+23ese22500 0.0 101120
03:00+22e22510 0.0 101015
06:00+21ese23585 0.0 101138
09:00+28ese69424 0.0 1010669
12:00+32e7931100 0.0 10081475
15:00+34e892678 0.0 10061991
18:00+31e4834100 0.0 1006271
21:00+25sse4953100 0.1 1008206